Location: Bęczków
(50.8761°N, 20.8028°E)
Time: 22:05:54
(UTC+02:00)

OTV 5 (USA 277) - Visible Passes

Search period start: 17 October 2019 00:00
Search period end: 27 October 2019 00:00
Orbit: 310 x 324 km, 54.5° (Epoch: 08 October)

Date Brightness Start Highest point End Pass type
(mag) Time Alt. Az. Time Alt. Az. Time Alt. Az.
17 Oct ? 04:50:44 35° E 04:50:44 35° E 04:52:32 10° ESE visible
17 Oct ? 06:21:38 10° W 06:23:57 25° SW 06:26:16 10° SSE visible
18 Oct ? 05:05:07 43° SE 05:05:07 43° SE 05:07:07 10° ESE visible
19 Oct ? 05:19:36 29° S 05:19:36 29° S 05:21:25 10° SE visible
20 Oct ? 05:34:13 15° SSW 05:34:13 15° SSW 05:35:10 10° S visible
